www.pogodaiklimat.ru

Погода и климат >> Архив погоды >> Индонезия >> Амбона


ПОГОДА в Амбоне

  • Прогноз погоды в Амбоне
  • Монитор погоды в Амбоне

АРХИВ ПОГОДЫ в Амбоне

Время (UTC), дата Ветер
(напр.,м/с)
 
Видим.   Явления Облачность Т
(С)
Тd
(С)
f
(%)
Тe
(С)
Тes
(С)
Комфортность P
(гПа)
Po
(гПа)
Тmin
(С)
Tmax
(С)
R
(мм)
R24
(мм)
S
(см)
00 15.07 ЮВ 4 5000 м в посл. час дождь 9/6 500 м
[Cu Sc Ac As Ci sp]
+25.6 +22.3 82 +33 +35 очень
душно
1013.0 1011.1 +23.9 0.7
03 15.07 СЗ 1 9000 м слаб. дождь 9/6 480 м
[Cu Sc Ac As Ci sp]
+24.8 +22.6 88 +33 +38 очень
душно
1012.0 1010.0 9
06 15.07 З 2 7000 м слаб. дождь 10/6 480 м
[Cu Sc Ac As Ci fib]
+23.6 +22.3 92 +31 +33 очень
душно
1009.9 1007.9 3
09 15.07 Ю 4 8000 м в посл. час дождь 10/6 480 м
[Cu Sc Ac As Ci fib]
+25.4 +22.7 85 +33 +33 очень
душно
1009.5 1007.6 0.7
12 15.07 ЮВ 3 10 км 10/6 480 м
[Cu Sc Ac As Ci sp]
+25.0 +21.8 82 +32 +32 очень
душно
1011.8 1009.8 +27.2 0.7
15 15.07 ЮВ 2 9000 м в посл. час дождь 10/6 480 м
[Cu Sc Ac As Ci sp]
+24.6 +22.4 88 +32 +32 очень
душно
1012.0 1010.2 3
18 15.07 С 2 5000 м слаб. дождь 10/8 450 м
[Cu Sc Ac As Ci sp]
+23.9 +22.6 92 +31 +31 очень
душно
1011.0 1009.2 3
21 15.07 ЮВ 4 9000 м осадки на расстоянии 10/8 450 м
[Cu Sc Ac As Ci sp]
+24.7 +22.4 87 +32 +32 очень
душно
1011.1 1009.3 8
00 16.07 Ю 5 1000 м слаб. дождь 10/8 450 м
[Cu Sc Ac As Ci sp]
+24.0 +23.0 94 +32 +32 очень
душно
1012.7 1010.7 +22.7 0.5
03 16.07 ЮВ 3 9000 м слаб. дождь 9/6 450 м
[Cu Sc Ac As Ci sp]
+25.4 +23.1 87 +34 +38 очень
душно
1011.2 1009.3 1
06 16.07 ЮВ 2 5000 м слаб. дождь 9/6 450 м
[Cu Sc Ac As Ci sp]
+25.2 +22.8 87 +33 +36 очень
душно
1009.3 1007.4 1
09 16.07 Ю 3 7000 м 9/6 500 м
[Cu Sc Ac As Ci sp]
+25.6 +22.9 85 +34 +34 очень
душно
1009.5 1007.6 0.0
12 16.07 ЮВ 4 6000 м {дождь} 9/6 500 м
[Cu Sc Ac As Ci sp]
+25.6 +22.9 85 +34 +34 очень
душно
1011.2 1009.3 +26.1 0.0
15 16.07 ЮВ 3 8000 м слаб. дождь 10/6 450 м
[Cu Sc Ac As Ci sp]
+25.5 +23.2 87 +34 +34 очень
душно
1011.6 1009.6 2
18 16.07 ЮВ 4 9000 м слаб. дождь 10/6 450 м
[Cu Sc Ac As Ci sp]
+25.6 +23.2 87 +34 +34 очень
душно
1010.2 1008.3 0.0
21 16.07 Ю 5 8000 м в посл. час дождь 10/6 450 м
[Cu Sc Ac As Ci sp]
+25.3 +25.2 99 +36 +36 очень
душно
1010.1 1008.2 0.0
00 17.07 ЮВ 5 4000 м слаб. дождь 10/6 450 м
[Cu Sc Ac As]
+25.1 +23.4 90 +34 +34 очень
душно
1011.7 1009.8 +23.8 0.5
03 17.07 ЮВ 5 4000 м слаб. дождь 9/6 450 м
[Cu Sc Ac As Ci sp]
+26.0 +23.1 84 +35 +37 очень
душно
1010.8 1008.9 4
06 17.07 ЮВ 2 10 км в посл. час дождь 10/6 500 м
[Cu Sc Ac As]
+26.0 +22.7 82 +34 +36 очень
душно
1008.8 1006.9 0.9
09 17.07 штиль 0 50 км слаб. дождь ?/? +25.9 +23.0 84 +35 +35 очень
душно
1009.3 1007.4 0.1
12 17.07 ЮВ 4 10 км 9/6 500 м
[Cu Sc Ac As Cs]
+25.8 +21.9 79 +33 +33 очень
душно
1011.2 1009.3 +26.0 0.1
15 17.07 В 3 10 км 9/6 500 м
[Cu Sc Ac As Cs]
+25.7 +22.2 81 +33 +33 очень
душно
1011.4 1009.5
18 17.07 ЮВ 4 10 км 9/6 500 м
[Cu Sc Ac As Cs]
+25.5 +22.6 84 +34 +34 очень
душно
1010.3 1008.4
21 17.07 СВ 1 8000 м слаб. дождь 9/6 500 м
[Cu Sc Ac As Cs]
+25.2 +23.1 88 +34 +34 очень
душно
1010.5 1008.6 0.0
00 18.07 ЮВ 3 9000 м слаб. дождь 9/6 480 м
[Cu Sc Ac As Ci sp]
+25.7 +22.5 83 +34 +35 очень
душно
1011.8 1009.9 +24.3 0.0
06 18.07 ЮВ 3 8000 м осадки на расстоянии 10/6 480 м
[Cu Sc Ac As]
+26.4 +23.4 84 +36 +37 очень
душно
1009.5 1007.6 0.0
09 18.07 штиль 0 50 км осадки на расстоянии ?/? +25.6 +22.9 85 +34 +34 очень
душно
1009.6 1007.7
12 18.07 С 1 9000 м в посл. час дождь 9/6 480 м
[Cu Sc Ac As Cs]
+24.3 +23.5 95 +33 +33 очень
душно
1011.0 1009.1 +27.0 0.1
15 18.07 С 2 10 км 9/6 480 м
[Cu Sc Ac As Cs]
+23.5 +23.0 97 +31 +31 очень
душно
1011.3 1009.3
18 18.07 С 1 10 км 9/6 480 м
[Cu Sc Ac As Cs]
+23.8 +23.1 96 +32 +32 очень
душно
1010.9 1008.9
21 18.07 СВ 1 10 км 9/5 500 м
[Cu Sc Ac As Cs]
+23.7 +23.2 97 +32 +32 очень
душно
1011.1 1009.1
00 19.07 штиль 0 9000 м слаб. дождь 10/6 500 м
[Cu Sc Ac As Cs]
+25.0 +23.9 94 +34 +36 очень
душно
1012.2 1010.3 +23.5 0.0
03 19.07 ЮВ 1 10 км {дождь} 9/5 500 м
[Cu Sc Ac As Ci sp]
+26.9 +22.9 79 +36 +42 очень
душно
1011.5 1009.6 0.0
06 19.07 Ю 2 7000 м слаб. дождь 9/8 480 м
[Cu Sc Ac As Cs]
+26.2 +23.8 87 +36 +38 очень
душно
1009.6 1007.7 0.0
09 19.07 СВ 2 10 км 8/4 500 м
[Cu Sc Ac trans Cs]
+26.0 +23.1 84 +35 +35 очень
душно
1010.1 1008.3 0.0
12 19.07 В 4 10 км {дождь} 9/8 500 м
[Cu Sc Ac As Cs]
+25.7 +22.8 84 +34 +34 очень
душно
1011.6 1009.7 +28.0 0.0
15 19.07 ЮВ 2 8000 м осадки на расстоянии 10/6 480 м
[Cu Sc Ac As Cs]
+25.7 +23.0 85 +34 +34 очень
душно
1012.0 1010.1 0.0
18 19.07 СВ 1 8000 м осадки на расстоянии 10/6 480 м
[Cu Sc Ac As Ci sp]
+25.2 +23.1 88 +34 +34 очень
душно
1010.4 1008.5 0.0
21 19.07 В 2 9000 м 9/6 480 м
[Cu Sc Ac As Cs]
+24.7 +22.4 87 +32 +32 очень
душно
1010.9 1009.0
00 20.07 ЮВ 2 8000 м осадки на расстоянии 9/6 500 м
[Cu Sc Ac As Cs]
+26.2 +22.6 81 +35 +36 очень
душно
1012.8 1010.9 +24.7 0.0
03 20.07 ЮВ 3 10 км 9/5 500 м
[Cu Sc Ac As Ci sp]
+26.6 +23.0 81 +36 +40 очень
душно
1012.6 1010.7 0.2
06 20.07 ЮВ 4 8000 м {дождь} 9/6 500 м
[Cu Sc Ac As Ci sp]
+26.2 +24.1 88 +36 +38 очень
душно
1010.4 1008.5
09 20.07 В 2 9000 м осадки на расстоянии 8/5 500 м
[Cu Sc Ac As Ci sp]
+25.8 +22.9 84 +34 +34 очень
душно
1010.4 1008.5
12 20.07 Ю 2 10 км 8/5 500 м
[Cu Sc Ac As Ci fib]
+25.2 +22.2 83 +33 +33 очень
душно
1011.6 1009.8 +27.0
15 20.07 Ю 3 9000 м слаб. дождь 6/4 500 м
[Cu Sc Ac trans Ci fib]
+24.9 +22.3 85 +32 +32 очень
душно
1012.2 1010.4 0.0
18 20.07 Ю 2 10 км 8/5 500 м
[Cu Sc Ac trans Ci fib]
+24.7 +21.6 83 +32 +32 очень
душно
1011.0 1009.4 0.0
21 20.07 С 1 9000 м осадки на расстоянии 9/4 500 м
[Cu Sc Ac As Cs]
+24.4 +22.7 90 +32 +32 очень
душно
1010.8 1008.8 0.0
00 21.07 СЗ 1 9000 м осадки на расстоянии 8/4 500 м
[Cu Sc Ac As Cs]
+26.2 +22.3 79 +34 +37 очень
душно
1011.6 1009.7 +23.3
03 21.07 Ю 4 9000 м осадки на расстоянии 8/4 500 м
[Cu Sc Ac As Cs]
+26.0 +22.8 83 +35 +40 очень
душно
1010.8 1008.9 0.3
06 21.07 ЮВ 4 8000 м 8/5 500 м
[Cu Sc Ac As Ci sp]
+26.7 +22.7 79 +35 +38 очень
душно
1008.8 1006.9 0.3
09 21.07 Ю 2 9000 м 9/6 500 м
[Cu Sc Ac As Ci sp]
+25.4 +22.7 85 +33 +33 очень
душно
1009.4 1007.5 0.0
12 21.07 ЮВ 2 9000 м 9/6 500 м
[Cu Sc Ac As Ci sp]
+25.2 +21.8 81 +32 +32 очень
душно
1011.1 1009.2 +27.5 0.0
15 21.07 СЗ 1 10 км 9/5 500 м
[Cu Sc Ac As Ci sp]
+23.9 +22.5 92 +31 +31 очень
душно
1010.9 1008.9
18 21.07 С 2 8000 м слаб. дождь 10/6 500 м
[Cu Sc Ac As Ci sp]
+23.5 +22.8 96 +31 +31 очень
душно
1009.6 1007.6 0.0

 

Местоположение метеостанции Амбона (Индонезия): широта -3.70 долгота 128.08 высота над уровнем моря 12 м.

В архиве по умолчанию представлена погода в Амбоне за последнюю неделю. Архивные данные за месяц целиком и за предыдущие месяцы, начиная с января 2011 года, Вы можете получить, выбрав интересующий диапазон дат из раскрывающегося списка и нажав кнопку "Ввод!".


*Определитесь, кто Вы:
робот инопланетянин человек

Внимание! Время в таблицах - всемирное. Для получения местного времени необходимо прибавить поправку, которая равна 9 ч.

Смотрите также архив погоды в соседних городах и на ближайших метеорологических станциях:

Погода в Амахаи (Индонезия) (97 км)
Погода в Намлеа (Индонезия) (122 км)
Погода в Неира (Индонезия) (222 км)
Погода в Тауне (Индонезия) (290 км)
Погода на Санане (Индонезия) (293 км)
Погода в Гесере (Индонезия) (305 км)
Погода в Лабухе (Индонезия) (347 км)
Погода в Аэропорту Соронг-Джефман (Индонезия) (456 км)
Погода в Факфаке (Индонезия) (472 км)
Погода в Тернате (Индонезия) (504 км)

Пояснения к столбцам:

Ветер - указаны скорость ветра в м/с - средняя за 10 мин, порывы в срок и между сроками (в фигурных скобках) и направление, откуда дует ветер: С - северный, СВ - северо-восточный, В - восточный, ЮВ - юго-восточный, Ю - южный, ЮЗ - юго-западный, З - западный, СЗ - северо-западный.
Видимость - горизонтальная дальность видимости в метрах или километрах. При видимости от 1 до 10 км при отсутствии осадков обычно наблюдается дымка, при ухудшении видимости до 1 км и менее - туман. В сухую погоду видимость может ухудшаться дымом, пылью или мглою.
Явления - указаны атмосферные явления, наблюдавшиеся в срок или в последний час перед сроком; фигурными скобками обозначены явления, наблюдавшиеся между сроками (за 1-3 часа до срока); квадратными скобками обозначены град или гололедные отложения с указанием их диаметра в мм.
Облачность - указаны через наклонную черту общая и нижняя облачность в баллах и высота нижней границы облаков в метрах; квадратными скобками обозначены формы облаков: Ci - перистые, Cs - перисто-слоистые, Cc - перисто-кучевые, Ac - высококучевые, As - высокослоистые, Sc - слоисто-кучевые, Ns - слоисто-дождевые, Cu - кучевые, Cb - кучево-дождевые. Подробнее классификацию облаков см. в Атласе облаков (PDF).
T - Температура воздуха - температура, измеренная на высоте 2 м над землей.
Td - Температура точки росы - температура, при понижении до которой содержащийся в воздухе водяной пар достигнет насыщения.
f - Относительная влажность воздуха - влажноcть воздуха, измеренная на высоте 2 м над землей.
Te - Эффективная температура - температура, которую ощущает одетый по сезону человек в тени. Характеристика душности погоды. При расчете учитывается влияние влажности воздуха и скорости ветра на теплоощущения человека.
Tes - Эффективная температура на солнце - температура, которую ощущает человек, с поправкой на солнечный нагрев. Характеристика знойности погоды. Зависит от высоты солнца над горизонтом, облачности и скорости ветра. Ночью, в пасмурную погоду, а также при ветре 12 м/с и более поправка равна нулю.
P - Атмосферное давление - приведенное к уровню моря атмосферное давление.
Po - Атмосферное давление - измеренное на уровне метеостанции атмосферное давление.
Tmin - Минимальная температура - минимум температуры воздуха на высоте 2 м над землей.
Tmax - Максимальная температура - максимум температуры воздуха на высоте 2 м над землей.
R - Количество осадков - Количество выпавших осадков за период времени, мм. При наведении курсора мыши на число - период времени, за который выпало указанное количество осадков.
R24 - Количество осадков - Количество выпавших осадков за 24 часа, мм.
S - Снежный покров - Высота снежного покрова, см. При наведении курсора мыши на число - состояние снежного покрова и степень покрытия местности в баллах.